Regional Weather Roundup
Issued by NWS Charleston, SC

Current Version | Previous Version | Text Only | Print | Product List | Glossary Off
Versions: 1 2 3 4 5 6 7 8 9 10 11 12 13 14 15 16 17 18 19 20 21 22 23 24 25 26 27 28 29 30 31 32 33 34 35 36 37 38 39 40 41 42 43 44 45 46 47 48 49 50

000
ASUS42 KCHS 040812
RWRCHS

REGIONAL WEATHER ROUNDUP
NATIONAL WEATHER SERVICE CHARLESTON SC
400 AM EDT FRI SEP 04 2015

NOTE: "FAIR" INDICATES FEW OR NO CLOUDS BELOW 12,000 FEET WITH NO
SIGNIFICANT WEATHER AND/OR OBSTRUCTIONS TO VISIBILITY.

NOT ALL STATIONS ARE QUALITY CONTROLLED BY THE NATIONAL
WEATHER SERVICE. USE DATA WITH CAUTION...ESPECIALLY
DEWPOINT OBSERVATIONS.

SCZ027-030-031-034>040-042>050-040900-
...SOUTHEAST SOUTH CAROLINA...

CITY           SKY/WX    TMP DP  RH WIND       PRES   REMARKS
N CHARLESTON   PTCLDY    77  74  90 CALM      29.92S
WATERFRONT PRK   N/A     80  77  90 CALM      29.89F
MOUNT PLEASANT FAIR      75  75 100 CALM      29.91F
JOHNS ISLAND   FAIR      77  75  94 CALM      29.92S
PINOPOLIS        N/A     79  75  89 CALM      29.84S
MONCKS CORNER  FAIR      75  72  88 CALM      29.92R
SUMMERVILLE    FAIR      73  73 100 CALM      29.93S
BEAUFORT MCAS  PTCLDY    78  75  90 CALM      29.92F
BEAUFORT ARPT  FAIR      77  77 100 CALM      29.91F
HILTON HEAD IS PTCLDY    77  77 100 MISG      29.92F
WALTERBORO     SUNNY     77  73  88 CALM      29.93S
ALLENDALE      FAIR      73  73 100 CALM      29.92S

...SOUTHERN MIDLANDS AND PEE DEE...

CITY           SKY/WX    TMP DP  RH WIND       PRES   REMARKS
GEORGETOWN     NOT AVBL
KINGSTREE      NOT AVBL
ORANGEBURG     CLEAR     73  71  93 CALM      29.93S
BARNWELL       FAIR      73  73 100 CALM      29.94R
AIKEN          FAIR      70  68  94 CALM      29.97S
MANNING        FAIR      72  72 100 CALM      29.92S
COLUMBIA       PTCLDY    75  71  87 W3        29.92R
SUMTER         CLEAR     74  71  92 SW1       29.91R
FLORENCE       CLEAR     73  70  90 S3        29.92R
MYRTLE BEACH   CLEAR     75  70  83 CALM      29.93S
N MYRTLE BEACH CLEAR     72  70  93 CALM      29.91S FOG

$$

GAZ063-065-086>088-099>101-113>116-118-119-134>141-150-040900-
...SOUTHEAST GEORGIA...

CITY           SKY/WX    TMP DP  RH WIND       PRES   REMARKS
SAVANNAH ARPT  PTCLDY    77  75  93 CALM      29.92F
HUNTER AAF     PTCLDY    77  77 100 CALM      29.90S
FORT STEWART   PTCLDY    77  75  94 CALM      29.90S
STATESBORO     PTCLDY    74  32  21 CALM      29.93S
SYLVANIA       NOT AVBL
CLAXTON        NOT AVBL

...CSRA...CENTRAL AND FAR SOUTHEAST GEORGIA...

CITY           SKY/WX    TMP DP  RH WIND       PRES   REMARKS
THOMSON        CLEAR     74  74 100 CALM      29.99R
AUGUSTA-BUSH   FOG       71  71 100 CALM      29.92S VSB 1/4
AUGUSTA-DANIEL CLEAR     77  74  90 CALM      29.94R
SWAINSBORO     FAIR      72  72 100 CALM      29.95S
VIDALIA        CLEAR     75  73  94 CALM      29.94S
EASTMAN        FAIR      73  73 100 CALM      29.97R FOG
HAZLEHURST     FAIR      77  77 100 CALM      29.93S
ALMA           PTCLDY    76  75  97 CALM      29.93S
WAYCROSS       CLEAR     78  78  99 CALM      29.93S
JESUP          FAIR      77  75  94 CALM      29.93S FOG
BAXLEY         FAIR      77  73  88 CALM      29.93S
BRUNSWICK      PTCLDY    73  72  94 CALM      29.93S
SAINT SIMONS   PTCLDY    76  76 100 CALM      29.92S

$$

SCZ027-028-034-036>038-045-046-048>050-GAZ119-141-040900-
...LAKE AND SUPPLEMENTAL COASTAL OBSERVATIONS...

STATION/POSITION TIME  TEMP    WIND        PRES    WAVE   SWELL
                       AIR SEA DIR/SP/G            HT/PER HT/PER/DIR
                 (UTC) (F)     (DEG/KT/KT) (MB)    (FT/S) (FT/S/D)
UPR LAKE MARION  NOT AVBL
WINYAH BAY       0645   77     250/  2     1012.0
LAKE MURRAY      0700   79      CALM  /  3 1012.5F
ACE BASIN NERRS  NOT AVBL
FORT PULASKI     0700   80 83  230/  2/  3 1013.7F
SAPELO ISLAND    0700   79     270/  1     1013.0S

$$

ANZ835-935-AMZ111-154-330-350-352-354-370-450-454-472-040900-
...C-MAN AND BUOY OBSERVATIONS...

STATION/POSITION TIME  TEMP    WIND        PRES    WAVE   SWELL
                       AIR SEA DIR/SP/G            HT/PER HT/PER/DIR
                 (UTC) (F)     (DEG/KT/KT) (MB)    (FT/S) (FT/S/D)
BUOY 41004       0750   82 84  250/  8/ 10 1012.4F   2/ 5   2/ 5
BUOY 41008       0750   83 84  270/  2/  4 1013.1S   1/ 8   2/110/ 8
FOLLY BEACH CMAN 0700   81     200/  6/  7 1013.2F
CAPERS NEARSHORE 0708   82     230/  6/  8 1013.0F
FRIPP NEARSHORE  0700   82     240/  6/  6 1012.9F


STATION/POSITION TIME  TEMP    WIND        PRES    WAVE   SWELL
                       AIR SEA DIR/SP/G            HT/PER HT/PER/DIR
                 (UTC) (F)     (DEG/KT/KT) (MB)    (FT/S) (FT/S/D)
5E ST. MARYS GA  0721      85                N/A     1/10
FRYING PAN BUOY  0750   81 81  290/  6/  8 1013.1S   1/13   2/290/13
BUOY 41025       0750   81 85  330/  6/  8 1012.4R   1/12   2/ 30/12
CAPE LOOKOUT NC  0700   80     310/  4/  5 1012.2F
BUOY 41002       0750   83 84  280/  2/  4 1012.3S   2/12   2/ 40/12
BUOY 41010       0720   84 85  250/ 17     1011.9F
ST AUGUSTINE FL  0800   78 84  270/  3/  4 1013.7F


$$


USA.gov is the U.S. government's official web portal to all federal, state and local government web resources and services.